Location: Unspecified
(22.6800°N, 112.2000°E)
Time: 21:51:42
(UTC+08:00)

Transit 4A - Pass Details

Date: 09 August 2021
Orbit: 871 x 974 km, 66.8° (Epoch: 21 September)

Event Time Altitude Azimuth Distance (km) Brightness Sun altitude
Exits shadow 23:16:36 12° 317° (NW) 2,417 10.6 -46.9°
Drops below altitude 10° 23:17:35 10° 327° (NNW) 2,527 10.7 -47.0°
Sets 23:21:48 0° 356° (N) 3,457 11.5 -47.5°
